This is the latest recevied weather packets stored in our database for station/object AI5KP-13. If no packets are shown the sender has not sent any weather packets the latest 10 day(s).
| Time | Temp. | Humidity | Pressure | Rain* | Wind** | Luminosity | Snow |
|---|---|---|---|---|---|---|---|
| 1777590825 | 18.33° C | 45% | 1015.3 hPa | 0 mm | - | 129 W/m² | - |
| 1777590522 | 18.33° C | 44% | 1015.2 hPa | 0 mm | - | 102 W/m² | - |
| 1777590218 | 18.33° C | 44% | 1015.3 hPa | 0 mm | - | 120 W/m² | - |
| 1777589916 | 18.33° C | 42% | 1015.1 hPa | 0 mm | - | 112 W/m² | - |
| 1777589611 | 18.89° C | 42% | 1015.3 hPa | 0 mm | - | 130 W/m² | - |
| 1777589309 | 20° C | 41% | 1015.2 hPa | 0 mm | - | 134 W/m² | - |
| 1777589000 | 19.44° C | 45% | 1015.3 hPa | 0 mm | - | 254 W/m² | - |
| 1777588696 | 18.89° C | 42% | 1015.2 hPa | 0 mm | - | 191 W/m² | - |
| 1777588392 | 19.44° C | 39% | 1015.2 hPa | 0 mm | - | 197 W/m² | - |
| 1777588088 | 20° C | 41% | 1015.2 hPa | 0 mm | - | 175 W/m² | - |
| 1777587784 | 19.44° C | 42% | 1015.1 hPa | 0 mm | - | 256 W/m² | - |
| 1777587483 | 18.89° C | 42% | 1015 hPa | 0 mm | - | 188 W/m² | - |
| 1777587180 | 19.44° C | 41% | 1015.2 hPa | 0 mm | - | 225 W/m² | - |
| 1777586875 | 20° C | 39% | 1015.2 hPa | 0 mm | - | 344 W/m² | - |
| 1777586571 | 18.89° C | 40% | 1015.3 hPa | 0 mm | - | 369 W/m² | - |
| 1777586267 | 20° C | 42% | 1015.1 hPa | 0 mm | - | 221 W/m² | - |
| 1777585964 | 18.89° C | 42% | 1015.2 hPa | 0 mm | - | 197 W/m² | - |
| 1777585659 | 18.33° C | 39% | 1015.2 hPa | 0 mm | - | 201 W/m² | - |
| 1777585355 | 19.44° C | 40% | 1015.3 hPa | 0 mm | - | 198 W/m² | - |
| 1777585044 | 19.44° C | 40% | 1015.2 hPa | 0 mm | - | 331 W/m² | - |
| 1777584741 | 20.56° C | 39% | 1015.2 hPa | 0 mm | - | 468 W/m² | - |
| 1777584439 | 19.44° C | 40% | 1015.2 hPa | 0 mm | - | 410 W/m² | - |
| 1777584134 | 19.44° C | 43% | 1015.4 hPa | 0 mm | - | 466 W/m² | - |
| 1777583834 | 19.44° C | 42% | 1015.4 hPa | 0 mm | - | 261 W/m² | - |
| 1777583530 | 18.89° C | 45% | 1015.4 hPa | 0 mm | - | 278 W/m² | - |
* Rain latest hour (hover to see other rain measurements)
** Current wind speed in m/s (hover to see current wind gust speed)